Regional Weather Roundup
Issued by NWS Midland/Odessa, TX

Skip options and go directly to product.
Home | Oldest Version | Next Version | Current Version | All | Text Only | Save Text | Print | Product List | Glossary On

Skip product version selection by date and time.   
607
ASUS44 KMAF 292001
RWRMAF
MIDLAND AREA WEATHER ROUNDUP
NATIONAL WEATHER SERVICE MIDLAND TX
300 PM CDT SAT APR 29 2017

...IN SOUTHWEST TEXAS AND SOUTHEAST NEW MEXICO...

CITY           SKY/WX    TMP DP  RH WIND       PRES   REMARKS
ALPINE         CLOUDY    49  38  64 N15G25    29.98R
ANDREWS        LGT RAIN  47  44  89 NW8       29.88R
ARTESIA        LGT RAIN  43  43 100 N20       29.90S WCI  34
BIG SPRING     CLOUDY    53  37  54 NW17G24   29.85R
CARLSBAD       CLOUDY    48  43  82 SW3       29.87S
DRYDEN           N/A     73  43  33 NW29G46   29.72R
FORT STOCKTON  CLOUDY    51  39  63 NW30G41   29.92R
GUAD PASS      CLOUDY    39  39 100 SW10      29.88R FOG     WCI  32
HOBBS          PTSUNNY   45  43  93 CALM      29.87F
MARFA          CLOUDY    47  34  60 NW25G36   29.97R WCI  39
MIDLAND AIRPK  CLOUDY    56  38  52 NW16      29.87R
MIDLAND INTL   CLOUDY    56  39  53 NW17G28   29.85R
ODESSA         CLOUDY    54  39  57 NW16      29.88R
PECOS          LGT RAIN  49  45  88 W12       29.93S
PRESIDIO       CLOUDY    66  36  32 W30G43    29.85R
SEMINOLE       RAIN      44  42  93 CALM      29.89R
SNYDER         CLOUDY   N/A N/A N/A NW20G28   29.80S
WINK           CLOUDY    48  46  93 W7        29.91R FOG
$$
...OTHER STATIONS IN TEXAS...

CITY           SKY/WX    TMP DP  RH WIND       PRES   REMARKS
ABILENE        CLOUDY    53  47  79 NW21      29.74R
AMARILLO       LGT SNOW  37  36  96 N20G25    29.89R FOG     WCI  27
AUSTIN         CLOUDY    90  72  55 S17G28    29.54S
BROWNSVILLE    MOSUNNY   92  75  57 S32G40    29.51F HX 103
CORPUS CHRISTI PTSUNNY   91  76  61 SE31G39   29.50F HX 103
DALLAS FTW     PTSUNNY   91  70  49 S22G32    29.51F
DEL RIO        PTSUNNY   81  55  40 NW15G25   29.60S
EL PASO        PTSUNNY   57  37  47 SW15      29.87R
HOUSTON INT    CLOUDY    83  74  74 S15G32    29.63S HAZE
LUBBOCK        CLOUDY    48  40  73 N20       29.82S
SAN ANGELO     CLOUDY    68  47  46 NW16G25   29.73R
SAN ANTONIO    CLOUDY    88  70  55 S9        29.54F
WACO           CLOUDY    88  72  58 S20G26    29.54F
WICHITA FALLS  NOT AVBL
$$
...OTHER LOCATIONS IN NEW MEXICO...

CITY           SKY/WX    TMP DP  RH WIND       PRES   REMARKS
ALAMOGORDO     CLOUDY    46  39  76 N15       29.92S
ALBUQUERQUE    CLOUDY    43  34  70 CALM      29.93F
CANNON AFB     CLOUDY    39  39  99 N23G33    29.85F WCI  28
CLOVIS         CLOUDY    39  32  75 N25       29.85F WCI  28
HOLLOMAN AFB   MOSUNNY   48  40  75 N22       29.94S
ROSWELL        CLOUDY    42  36  79 N21         N/A  WCI  33
RUIDOSO        SNOW      28  27  93 N8G16     29.93R VSB 1/2 WCI  20
SANTA FE       LGT SNOW  34  31  88 N21       29.93S FOG     WCI  22
TRUTH OR CONSE PTSUNNY   50  29  44 NE12G23   29.91F
TUCUMCARI      SNOW      34  33  96 N12       29.93R VSB 1/2 WCI  25
$$

  • National Weather Service
  • Southern Region Headquarters
  • 819 Taylor Street, Room 10A06
  • Fort Worth, TX 76102
  • Page Author: NWS Fort Worth
  • Web Master: SR-SRH.Webmaster@noaa.gov
  •  
  • Page last modified: 30-Sep-2016 6:36 PM UTC
USA.gov is the U.S. government's official web portal to all federal, state and local government web resources and services.